Flag for Germany Weather past 2 weeks in Dorsten, North Rhine-Westphalia, Germany

Now
59 °F

Overcast.


Feels Like: 59 °F
Forecast: 45 / 58 °F
Wind: 6 mph from Southwest

Location: Essen

Current Time: Oct 20, 2014 at 2:27:24 PM

Latest Report: Oct 20, 2014 at 2:00 PM


Visibility: 28 mi

Pressure: 30.03 "Hg

Humidity: 76%

Dew point: 52 °F

Location of DorstenLocation

Historic Weather in Dorsten — Graph

°F

Dorsten temperature yesterday

Maximum temperature yesterday: 73 °F (at 3:00 PM)
Minimum temperature yesterday: 60 °F (at 8:00 AM)
Average temperature yesterday: 65 °F

Past Weeks' High & Low Weather Summary

 TemperatureHumidityPressure
High73 °F (Oct 19, 3:00 PM)100% (Oct 5, 6:00 PM)30.10 "Hg (Oct 5, 6:00 PM)
Low49 °F (Oct 8, 4:00 AM)55% (Oct 14, 2:00 PM)29.50 "Hg (Oct 7, 9:00 AM)
Average58 °F85%29.83 "Hg
* Reported Oct 5 1:00 PM — Oct 20 1:00 PM, Dorsten, Weather by CustomWeather, © 2014

Note: Actual official high and low records may vary slightly from our data, if they occured in-between our weather recording intervals... More about our weather records

Advertising

Dorsten weather history for previous 24 hours

 ConditionsComfort  
Time TempWeatherWind HumidityBarometerVisibility
1:00 PM
Oct 20
60 °FOvercast.5 mph79%30.03 "Hg19 mi
12:00 PM57 °FOvercast.6 mph86%30.04 "Hg19 mi
11:00 AM57 °FOvercast.5 mph88%30.04 "Hg18 mi
10:00 AM56 °FOvercast.5 mph88%30.04 "Hg17 mi
9:00 AM56 °FOvercast.6 mph89%30.03 "Hg16 mi
8:00 AM56 °FOvercast.5 mph90%30.02 "Hg19 mi
7:00 AM56 °FOvercast.6 mph90%30.01 "Hg19 mi
5:00 AM57 °FOvercast.3 mph88%30.01 "Hg22 mi
4:00 AM57 °FOvercast.5 mph87%30.02 "Hg28 mi
3:00 AM58 °FPassing clouds.6 mph84%30.02 "Hg28 mi
2:00 AM58 °FOvercast.6 mph82%30.02 "Hg31 mi
1:00 AM59 °FOvercast.5 mph79%30.03 "Hg34 mi
12:00 AM60 °FOvercast.6 mph76%30.02 "Hg37 mi
11:00 PM
Oct 19
62 °FOvercast.6 mph77%30.00 "Hg43 mi
10:00 PM63 °FOvercast.6 mph85%29.98 "Hg25 mi
9:00 PM63 °FOvercast.6 mph94%29.97 "Hg9 mi
8:00 PM67 °FLight rain. Overcast.6 mph76%29.95 "Hg22 mi
7:00 PM68 °FPassing clouds.6 mph75%29.95 "Hg28 mi
6:00 PM69 °FPassing clouds.7 mph71%29.95 "Hg31 mi
5:00 PM70 °FScattered clouds.6 mph69%29.95 "Hg34 mi
4:00 PM72 °FPassing clouds.7 mph66%29.94 "Hg17 mi
3:00 PM73 °FScattered clouds.7 mph62%29.95 "Hg19 mi
2:00 PM71 °FSunny.6 mph67%29.97 "Hg19 mi
Weather by CustomWeather, © 2014

See weather overviewHow to use our weather pages